[[{"header":{"parameterUnit":"m.s-1","parameterCategory":1,"la1":30.2991,"la2":30.254,"lo1":-89.0895,"lo2":-89.0444,"dy":0.0017,"dx":0.0017,"nx":28,"ny":28,"refTime":"2023-10-28T09:00:00:Z","depth":0,"parameterNumber":2,"parameterNumberName":"U-component_of_WINDS"},"data":[0,0,0,0,0,0,0,0,0,0,0,0,0,0,0,0,0,0,0,0,0,0,0,0,0,0,0,0,0,0,0,0,0,0,0,0,0,0,0,0,0,0,0,0,0,0,0,0,0,0,0,0,0,0,0,0,0,0,-2.6349,-2.635,0,-2.6445,-2.6446,-2.6447,-2.6446,-2.6445,-2.6443,-2.6442,-2.654,-2.6544,-2.6548,0,0,0,0,0,0,0,0,0,0,0,0,0,-2.6167,-2.6171,-2.6349,-2.635,-2.6351,-2.6445,-2.6446,-2.6447,-2.6446,-2.6445,-2.6443,-2.6442,-2.6539,-2.6544,-2.6548,0,0,0,0,0,0,0,0,0,0,0,0,0,-2.6253,-2.6172,-2.6349,-2.6362,-2.6364,-2.6444,-2.6446,-2.6448,-2.6447,-2.6445,-2.6443,-2.6441,-2.6538,-2.6543,-2.6549,-2.6622,0,0,-2.6566,-2.6569,0,0,0,0,0,0,0,0,-2.6248,-2.626,-2.6359,-2.6361,-2.6364,-2.6432,-2.6418,-2.6506,-2.6447,-2.6415,-2.6442,-2.644,-2.6506,-2.6514,-2.6536,-2.6627,-2.6631,-2.6567,-2.657,-2.6573,-2.6574,0,0,0,0,0,0,0,-2.6242,-2.6256,-2.6387,-2.636,-2.6363,-2.6364,-2.6374,-2.6435,-2.647,-2.6418,-2.6418,-2.6429,-2.6507,-2.6531,-2.6538,-2.6632,-2.6567,-2.6572,-2.6575,-2.6577,-2.679,-2.6792,0,0,0,0,0,0,-2.6233,-2.6251,-2.6384,-2.639,-2.63,-2.6369,-2.638,-2.6412,-2.6469,-2.6476,-2.6431,-2.6429,-2.6522,-2.6532,-2.6542,-2.6632,-2.6573,-2.6578,-2.6581,-2.6788,-2.679,-2.6793,0,0,0,0,0,0,-2.6229,-2.6245,-2.638,-2.632,-2.6338,-2.6374,-2.641,-2.6415,-2.6438,-2.6479,-2.6486,-2.6449,-2.6521,-2.6534,-2.6603,-2.6635,-2.6581,-2.6586,-2.6785,-2.6788,-2.6791,-2.6812,0,0,0,0,0,0,-2.6224,-2.6244,-2.6271,-2.6321,-2.6341,-2.6439,-2.6412,-2.6418,-2.6448,-2.6447,-2.6498,-2.6504,-2.652,-2.6594,-2.6608,-2.6642,-2.659,-2.6782,-2.6786,-2.679,-2.6809,-2.6816,-2.6822,0,0,0,0,0,-2.6218,-2.6273,-2.6273,-2.6289,-2.6376,-2.644,-2.6452,-2.6469,-2.6451,-2.6479,-2.6506,-2.6503,-2.663,-2.6601,-2.6617,-2.6653,-2.678,-2.6785,-2.679,-2.6806,-2.6814,-2.6822,0,0,0,0,0,0,-2.6226,-2.628,-2.628,-2.6353,-2.6392,-2.644,-2.6476,-2.6477,-2.6523,-2.6519,-2.6539,-2.6551,-2.6619,-2.6643,-2.661,-2.6728,-2.6703,-2.6711,-2.6709,-2.6718,-2.6724,-2.6716,-2.6595,0,0,0,0,0,-2.6236,-2.6284,-2.6328,-2.6389,-2.6408,-2.6439,-2.6468,-2.6478,-2.6519,-2.6536,-2.6567,-2.6608,-2.6657,-2.6689,-2.6737,-2.6813,-2.6824,-2.6846,-2.6853,-2.6858,-2.6864,-2.6907,-2.6917,-2.6809,-2.6809,-2.6809,0,0,-2.6258,-2.6293,-2.6322,-2.6391,-2.6423,-2.6472,-2.6453,-2.6505,-2.6542,-2.6544,-2.6611,-2.6636,-2.6683,-2.6755,-2.6789,-2.6778,-2.6897,-2.6864,-2.6868,-2.6872,-2.6913,-2.6924,-2.6933,-2.6812,-2.6812,-2.6811,0,0,-2.6322,-2.6354,-2.6407,-2.644,-2.6488,-2.6509,-2.6522,-2.6571,-2.6587,-2.6655,-2.6657,-2.6702,-2.6787,-2.682,-2.6848,-2.6928,-2.6927,-2.6944,-2.6977,-2.7019,-2.7027,-2.7035,-2.7064,-2.7074,-2.695,-2.695,-2.695,0,-2.6343,-2.6416,-2.6435,-2.6488,-2.6519,-2.6524,-2.6579,-2.661,-2.6672,-2.6693,-2.668,-2.6787,-2.6818,-2.69,-2.692,-2.6942,-2.6958,-2.6937,-2.7025,-2.7033,-2.704,-2.7067,-2.7078,-2.6952,-2.6952,-2.6952,-2.6951,0,-2.644,-2.6491,-2.6529,-2.6589,-2.6624,-2.6678,-2.6706,-2.674,-2.6748,-2.677,-2.684,-2.6878,-2.6934,-2.6955,-2.6963,-2.7038,-2.7029,-2.702,-2.6995,-2.7052,-2.7078,-2.7088,-2.6954,-2.6954,-2.6953,-2.6953,0,0,-2.6509,-2.658,-2.6593,-2.6621,-2.6676,-2.6717,-2.6772,-2.6827,-2.6856,-2.6899,-2.6946,-2.7019,-2.7011,-2.7043,-2.7055,-2.7092,-2.7154,-2.7079,-2.708,-2.7091,-2.7239,-2.7245,-2.7257,-2.7154,-2.7156,-2.7158,-2.7235,0,-2.6579,-2.6676,-2.6695,-2.678,-2.6828,-2.6835,-2.6883,-2.6923,-2.6946,-2.6991,-2.7016,-2.7067,-2.7054,-2.7073,-2.711,-2.7138,-2.7184,-2.7133,-2.7198,-2.72,-2.7184,-2.727,-2.7276,-2.7347,-2.7246,-2.7247,-2.7249,0,-2.6672,-2.6718,-2.6807,-2.6857,-2.6878,-2.6921,-2.6974,-2.7017,-2.7063,-2.7077,-2.7114,-2.7123,-2.7182,-2.7156,-2.7237,-2.7202,-2.723,-2.7249,-2.7252,-2.7257,-2.7226,-2.7277,-2.737,-2.738,-2.7265,-2.7264,-2.7262,0,-2.6713,-2.6797,-2.6862,-2.6886,-2.6946,-2.6976,-2.7002,-2.7046,-2.7079,-2.7126,-2.7147,-2.72,-2.7229,-2.7271,-2.7294,-2.7273,-2.7374,-2.7349,-2.7388,-2.7387,-2.7407,-2.7405,-2.7504,-2.7427,-2.7427,-2.7427,-2.7426,0,-2.6788,-2.6842,-2.6881,-2.6921,-2.6983,-2.7006,-2.7066,-2.7093,-2.7132,-2.7178,-2.7188,-2.723,-2.7259,-2.7307,-2.7326,-2.739,-2.7403,-2.7417,-2.7421,-2.7415,-2.7414,-2.7433,-2.7428,-2.743,-2.7429,-2.7428,-2.7428,0,-2.6843,-2.6872,-2.6942,-2.6994,-2.7009,-2.7052,-2.7097,-2.7136,-2.716,-2.7218,-2.7233,-2.7271,-2.7327,-2.7355,-2.7425,-2.7438,-2.7511,-2.7513,-2.7496,-2.7497,-2.7533,-2.7529,-2.7648,-2.7664,-2.7577,-2.7577,-2.7578,0,-2.6888,-2.693,-2.6987,-2.7018,-2.7046,-2.7096,-2.7129,-2.7155,-2.7189,-2.7246,-2.7279,-2.7336,-2.7382,-2.7472,-2.7506,-2.756,-2.7563,-2.7601,-2.7571,-2.7564,-2.7563,-2.756,-2.7564,-2.7605,-2.7606,-2.7607,-2.7607,0,-2.6966,-2.6978,-2.7026,-2.7079,-2.7119,-2.7162,-2.7205,-2.723,-2.7263,-2.7302,-2.7359,-2.7396,-2.7468,-2.7524,-2.7581,-2.7609,-2.7614,-2.7617,-2.7629,-2.7622,-2.761,-2.7617,-2.7509,-2.7614,-2.7613,-2.7612,-2.7612,-2.7612,-2.7017,-2.7055,-2.7101,-2.7155,-2.719,-2.723,-2.727,-2.73,-2.7348,-2.7408,-2.7421,-2.7482,-2.7529,-2.7606,-2.7637,-2.7686,-2.7677,-2.7694,-2.7698,-2.7702,-2.7703,-2.7604,-2.7696,-2.7696,-2.7696,-2.7696,-2.7696,0,-2.7094,-2.7125,-2.7174,-2.7234,-2.7276,-2.7278,-2.7326,-2.7361,-2.7415,-2.7458,-2.7504,-2.7572,-2.7627,-2.7667,-2.7723,-2.7755,-2.7759,-2.7769,-2.7766,-2.7773,-2.7708,-2.7692,-2.7765,-2.7765,-2.7765,-2.7765,-2.7765,-2.7765,-2.7139,-2.7204,-2.7222,-2.7305,-2.7336,-2.7396,-2.7423,-2.7461,-2.7496,-2.757,-2.7616,-2.7642,-2.7684,-2.7745,-2.7796,-2.7806,-2.7827,-2.7837,-2.7847,-2.7785,-2.7777,-2.777,-2.7755,-2.7841,-2.7841,-2.7908,-2.7909,-2.7909]},{"header":{"parameterUnit":"m.s-1","parameterCategory":1,"la1":30.2991,"la2":30.254,"lo1":-89.0895,"lo2":-89.0444,"dy":0.0017,"dx":0.0017,"nx":28,"ny":28,"refTime":"2023-10-28T09:00:00:Z","depth":0,"parameterNumber":3,"parameterNumberName":"V-component_of_WINDS"},"data":[0,0,0,0,0,0,0,0,0,0,0,0,0,0,0,0,0,0,0,0,0,0,0,0,0,0,0,0,0,0,0,0,0,0,0,0,0,0,0,0,0,0,0,0,0,0,0,0,0,0,0,0,0,0,0,0,0,0,2.9326,2.9326,0,2.9292,2.9292,2.9291,2.9185,2.9182,2.918,2.9178,2.9145,2.9147,2.9148,0,0,0,0,0,0,0,0,0,0,0,0,0,2.9304,2.9305,2.9326,2.9326,2.9326,2.9292,2.9292,2.9291,2.9185,2.9182,2.9179,2.9177,2.9145,2.9146,2.9148,0,0,0,0,0,0,0,0,0,0,0,0,0,2.9297,2.9306,2.9327,2.9269,2.9263,2.9292,2.9292,2.9291,2.9186,2.9182,2.9179,2.9175,2.9144,2.9146,2.9148,2.9231,0,0,2.9154,2.9155,0,0,0,0,0,0,0,0,2.9297,2.9298,2.9278,2.9273,2.9267,2.9239,2.9272,2.9271,2.9187,2.9215,2.9178,2.9174,2.918,2.9178,2.918,2.923,2.9229,2.9155,2.9156,2.9157,2.9157,0,0,0,0,0,0,0,2.9298,2.9298,2.9313,2.9277,2.9271,2.9246,2.9241,2.9271,2.9218,2.9212,2.9205,2.9202,2.9176,2.9178,2.9178,2.9228,2.9154,2.9156,2.9157,2.9158,2.9347,2.9351,0,0,0,0,0,0,2.9306,2.93,2.9314,2.9312,2.9273,2.9249,2.9243,2.9252,2.9217,2.9208,2.9205,2.9197,2.9176,2.9176,2.9177,2.9273,2.9157,2.9158,2.916,2.9343,2.9348,2.9352,0,0,0,0,0,0,2.9306,2.9308,2.9315,2.9304,2.9303,2.9253,2.9263,2.9253,2.9255,2.9211,2.9202,2.9217,2.9174,2.9174,2.9219,2.927,2.9159,2.9161,2.9339,2.9345,2.935,2.9465,0,0,0,0,0,0,2.9306,2.9309,2.9339,2.9305,2.9304,2.9357,2.9266,2.9255,2.9258,2.9248,2.922,2.9212,2.9171,2.9217,2.9221,2.9271,2.9163,2.9334,2.9341,2.9348,2.9456,2.9474,2.9489,0,0,0,0,0,2.9306,2.9373,2.9341,2.9343,2.934,2.936,2.936,2.931,2.9263,2.9293,2.9266,2.9213,2.9264,2.9222,2.9226,2.9277,2.933,2.9339,2.9347,2.9449,2.9471,2.9489,0,0,0,0,0,0,2.9414,2.9367,2.9331,2.9389,2.938,2.9342,2.9379,2.9334,2.9338,2.9328,2.9267,2.9262,2.9316,2.9301,2.9255,2.9357,2.9289,2.9298,2.9365,2.9385,2.9401,2.9403,2.9164,0,0,0,0,0,2.9445,2.9465,2.9423,2.9478,2.9475,2.9429,2.9435,2.9398,2.9386,2.9382,2.9357,2.9348,2.9362,2.9373,2.9383,2.9454,2.9448,2.9492,2.9508,2.9522,2.9531,2.9569,2.9589,2.938,2.938,2.938,0,0,2.9509,2.9486,2.9501,2.95,2.9488,2.9511,2.9425,2.9453,2.947,2.9386,2.9426,2.9409,2.9395,2.9454,2.9479,2.9443,2.9587,2.9533,2.9544,2.9545,2.958,2.96,2.9617,2.9386,2.9385,2.9384,0,0,2.9636,2.962,2.9665,2.9655,2.9638,2.9607,2.9619,2.9588,2.9573,2.9613,2.9552,2.9572,2.9597,2.959,2.959,2.9718,2.967,2.9724,2.9808,2.9847,2.9863,2.9877,2.9924,2.9941,2.9733,2.9733,2.9733,0,2.9717,2.9748,2.9694,2.9726,2.9728,2.9654,2.97,2.9693,2.9681,2.9685,2.9645,2.9677,2.9662,2.9719,2.9751,2.9753,2.9765,2.9726,2.9865,2.9879,2.9891,2.9935,2.9953,2.974,2.9739,2.9738,2.9738,0,2.985,2.9872,2.9911,2.9901,2.9907,2.9946,2.99,2.9913,2.9877,2.9851,2.9894,2.9874,2.988,2.9891,2.9856,2.9944,2.9923,2.9875,2.9805,2.9919,2.9959,2.9975,2.9749,2.9747,2.9745,2.9743,0,0,3.0042,3.0004,3.0019,3.0014,2.9991,3.0008,3.0046,3.0051,3.0064,3.006,3.009,3.0114,3.007,3.0071,3.0034,3.0068,3.0172,3.0016,3.0015,3.0046,3.027,3.0306,3.0326,3.0141,3.0144,3.0146,3.0271,0,3.0163,3.0222,3.0176,3.0244,3.0266,3.0197,3.023,3.022,3.0198,3.0214,3.0189,3.0207,3.0148,3.0148,3.0178,3.0153,3.0216,3.0143,3.0169,3.0171,3.0174,3.0347,3.0384,3.0503,3.0287,3.0289,3.0291,0,3.0311,3.0313,3.0383,3.0358,3.0365,3.0395,3.0398,3.0413,3.0403,3.0384,3.0386,3.0341,3.0377,3.031,3.0359,3.0311,3.0319,3.0309,3.0313,3.0313,3.0237,3.0352,3.054,3.0558,3.0315,3.0313,3.0312,0,3.0445,3.0465,3.051,3.0508,3.048,3.0503,3.0492,3.0478,3.0485,3.0488,3.0492,3.05,3.0504,3.0512,3.0472,3.0426,3.0528,3.0456,3.0514,3.0515,3.0538,3.0537,3.073,3.0544,3.0544,3.0543,3.0543,0,3.0584,3.063,3.057,3.0598,3.0648,3.0596,3.0648,3.063,3.0619,3.0643,3.0585,3.061,3.0555,3.0574,3.0543,3.059,3.0592,3.0579,3.057,3.0584,3.0586,3.0588,3.0579,3.0548,3.0547,3.0546,3.0545,0,3.0741,3.0702,3.0747,3.0718,3.0712,3.075,3.0725,3.0751,3.0725,3.0757,3.0762,3.0722,3.0742,3.0703,3.0718,3.0697,3.0764,3.0742,3.0767,3.076,3.0821,3.0816,3.1022,3.1047,3.0846,3.0848,3.0849,0,3.0832,3.0865,3.084,3.0852,3.0845,3.0865,3.0872,3.0824,3.0834,3.0826,3.0853,3.0868,3.0878,3.0914,3.0887,3.0899,3.0877,3.0948,3.0878,3.0892,3.0878,3.0877,3.0881,3.0963,3.0965,3.0967,3.0969,0,3.0997,3.0978,3.0989,3.0997,3.1007,3.101,3.1009,3.1023,3.0972,3.0987,3.1006,3.1014,3.103,3.1047,3.1053,3.1043,3.0998,3.0991,3.1005,3.102,3.1033,3.1027,3.0806,3.0986,3.0985,3.0983,3.0982,3.0982,3.1124,3.1151,3.1138,3.1155,3.1149,3.1151,3.1173,3.1152,3.1167,3.1176,3.1147,3.1174,3.1165,3.1169,3.1164,3.1186,3.1154,3.1174,3.118,3.1185,3.1195,3.103,3.1187,3.1186,3.1186,3.1185,3.1185,0,3.1287,3.1276,3.1291,3.1292,3.1306,3.1263,3.126,3.1275,3.1299,3.1295,3.1306,3.133,3.1347,3.1323,3.1335,3.1357,3.1337,3.1362,3.136,3.1359,3.1223,3.1209,3.1379,3.1379,3.1378,3.1378,3.1378,3.1378,3.1373,3.1418,3.1397,3.144,3.1428,3.1454,3.1457,3.1459,3.1454,3.1484,3.1498,3.1482,3.147,3.1482,3.1496,3.1488,3.1496,3.1529,3.1514,3.1387,3.1368,3.135,3.1337,3.1531,3.1531,3.1649,3.165,3.1651]}]]